{"data":{"norad_id":63570,"epoch":"2026-09-20T19:12:07.026048Z","epoch_age_seconds":129588,"freshness":"FRESH","line1":"1 63570U 25076B   26263.80008132  .00015641  00000+0  57681-3 0  9998","line2":"2 63570  43.0007 303.0304 0001215 273.3785  86.6927 15.27572671 81622","mean_motion":15.27572671,"eccentricity":0.0001215,"inclination_deg":43.0007,"raan_deg":303.0304,"arg_perigee_deg":273.3785,"mean_anomaly_deg":86.6927,"bstar":0.00057681,"rev_number":8162,"period_min":94.267200987389,"perigee_km":482.23740501291,"apogee_km":483.90467856707,"semimajor_km":6861.20804179,"source":"CELESTRAK","updated_at":"2026-09-21T09:00:35.044821Z"}}